Find Starlink 4796

NORAD ID: 53909 Int'l Des: 2022-119 Owner: SPXS Country: US Constellation: starlink operational
LEOCIRCULAR

リアルタイム位置

3D地球を読み込み中...

Starlink 4796について

説明を読み込み中...

次回通過

Passes for default location (London). Set your location on the main map for personalized predictions.

高度履歴

Loading altitude history...

軌道要素

1 53909U 22119Z 26105.40299439 .00000561 00000-0 53353-4 0 9990
2 53909 53.2161 149.5694 0001205 100.9919 259.1208 15.08841439197367
Epoch: Apr 15, 2026 • Age: 15 hours

現在のステータス

高度 542.0 km
速度 7.60 km/s
衛星直下点 37.34°N, 79.68°E
打ち上げ日 Sep 24, 2022
運用期間 3.5 years
タイプ internet

技術仕様

分類 Payload
質量 305.00 kg
乾燥質量 290.00 kg
総質量 305.00 kg
長さ 0.20 m
直径 2.80 m
スパン 9.00 m
形状 Box + pan
製造者 SPXS
バスタイプ Starlink
フェーズステータス In Orbit
所有者/国 SPXS/US

Most Searched